SR9WXY Weather Reports


time (UTC)temp
F
wind
direction
speed
knots
gust
knots
rain 1hr
in
rain 24hr
in
rain mn
in
humidity
%
barometer
mb
20260507172355 44 0 0.0 0.0 0.00 0.00 0.00 27 879.7
20260507171854 44 0 0.0 0.0 0.00 0.00 0.00 27 879.7
20260507171341 44 0 0.0 0.0 0.00 0.00 0.00 27 879.7
20260507170841 44 0 0.0 0.0 0.00 0.00 0.00 27 879.7
20260507170342 45 0 0.0 0.0 0.00 0.00 0.00 27 879.6
20260507165842 46 0 0.0 0.0 0.00 0.00 0.00 28 879.7
20260507165342 47 0 0.0 0.0 0.00 0.00 0.00 28 879.6
20260507164842 47 0 0.0 0.0 0.00 0.00 0.00 29 879.5
20260507164342 47 0 0.0 0.0 0.00 0.00 0.00 29 879.4
20260507163842 47 0 0.0 0.0 0.00 0.00 0.00 28 879.2
20260507163342 47 0 0.0 0.0 0.00 0.00 0.00 28 879.2
20260507162842 47 0 0.0 0.0 0.00 0.00 0.00 28 879.2
20260507162342 47 0 0.0 0.0 0.00 0.00 0.00 28 879.2
20260507161842 47 0 0.0 0.0 0.00 0.00 0.00 99 879.2
20260507161342 47 0 0.0 0.0 0.00 0.00 0.00 99 879.2
20260507160842 47 0 0.0 0.0 0.00 0.00 0.00 99 879.2
20260507160340 47 0 0.0 0.0 0.00 0.00 0.00 98 879.3
20260507155340 47 0 0.0 0.0 0.00 0.00 0.00 97 879.2
20260507154840 48 0 0.0 0.0 0.00 0.00 0.00 96 879.2
20260507154340 48 0 0.0 0.0 0.00 0.00 0.00 96 879.3
20260507153838 48 0 0.0 0.0 0.00 0.00 0.00 96 879.2
20260507153329 48 0 0.0 0.0 0.00 0.00 0.00 95 879.2
20260507152828 48 0 0.0 0.0 0.00 0.00 0.00 95 879.2
20260507152328 48 0 0.0 0.0 0.00 0.00 0.00 94 879.2
20260507151829 48 0 0.0 0.0 0.00 0.00 0.00 94 879.2
20260507151329 48 0 0.0 0.0 0.00 0.00 0.00 93 879.2
20260507150829 48 0 0.0 0.0 0.00 0.00 0.00 93 879.2
20260507145829 48 0 0.0 0.0 0.00 0.00 0.00 92 879.1
20260507145329 48 0 0.0 0.0 0.00 0.00 0.00 92 879.2
20260507144829 49 0 0.0 0.0 0.00 0.00 0.00 92 879.2
20260507144329 48 0 0.0 0.0 0.00 0.00 0.00 91 879.1
20260507143829 48 0 0.0 0.0 0.00 0.00 0.00 90 879.1
20260507143328 47 0 0.0 0.0 0.00 0.00 0.00 89 879.1
20260507142829 47 0 0.0 0.0 0.00 0.00 0.00 89 879.0
20260507142328 47 0 0.0 0.0 0.00 0.00 0.00 88 879.0
20260507141828 47 0 0.0 0.0 0.00 0.00 0.00 86 879.1
20260507140826 46 0 0.0 0.0 0.00 0.00 0.00 83 879.2
20260507140326 47 0 0.0 0.0 0.00 0.00 0.00 81 879.2
20260507135826 47 0 0.0 0.0 0.00 0.00 0.00 81 879.2
20260507135326 47 0 0.0 0.0 0.00 0.00 0.00 80 879.3
20260507134824 47 0 0.0 0.0 0.00 0.00 0.00 80 879.3
20260507134324 47 0 0.0 0.0 0.00 0.00 0.00 80 879.3
20260507133824 47 0 0.0 0.0 0.00 0.00 0.00 80 879.3
20260507133324 47 0 0.0 0.0 0.00 0.00 0.00 79 879.3
20260507132824 47 0 0.0 0.0 0.00 0.00 0.00 79 879.4
20260507132324 47 0 0.0 0.0 0.00 0.00 0.00 79 879.5
20260507131825 48 0 0.0 0.0 0.00 0.00 0.00 78 879.5
20260507130825 48 0 0.0 0.0 0.00 0.00 0.00 77 879.4
20260507130315 48 0 0.0 0.0 0.00 0.00 0.00 76 879.3
20260507125815 49 0 0.0 0.0 0.00 0.00 0.00 75 879.3
20260507125316 50 0 0.0 0.0 0.00 0.00 0.00 74 879.3
20260507124816 51 0 0.0 0.0 0.00 0.00 0.00 73 879.3
20260507124316 51 0 0.0 0.0 0.00 0.00 0.00 73 879.3
20260507123816 51 0 0.0 0.0 0.00 0.00 0.00 73 879.2
20260507123316 51 0 0.0 0.0 0.00 0.00 0.00 73 879.2
20260507122816 51 0 0.0 0.0 0.00 0.00 0.00 73 879.1
20260507122314 51 0 0.0 0.0 0.00 0.00 0.00 72 879.1
20260507121814 52 0 0.0 0.0 0.00 0.00 0.00 72 879.1
20260507121314 52 0 0.0 0.0 0.00 0.00 0.00 72 879.1
20260507120814 53 0 0.0 0.0 0.00 0.00 0.00 71 879.1
20260507120314 54 0 0.0 0.0 0.00 0.00 0.00 71 879.0
20260507115811 55 0 0.0 0.0 0.00 0.00 0.00 71 879.0
20260507115312 56 0 0.0 0.0 0.00 0.00 0.00 71 878.9
20260507114812 56 0 0.0 0.0 0.00 0.00 0.00 71 878.9
20260507114312 55 0 0.0 0.0 0.00 0.00 0.00 71 878.9
20260507113811 55 0 0.0 0.0 0.00 0.00 0.00 71 879.0
20260507113311 55 0 0.0 0.0 0.00 0.00 0.00 71 879.0
20260507112811 55 0 0.0 0.0 0.00 0.00 0.00 72 878.9
20260507112311 55 0 0.0 0.0 0.00 0.00 0.00 72 879.0
20260507111811 54 0 0.0 0.0 0.00 0.00 0.00 72 879.0
20260507111311 54 0 0.0 0.0 0.00 0.00 0.00 72 879.0
20260507110811 54 0 0.0 0.0 0.00 0.00 0.00 72 879.1
20260507110312 53 0 0.0 0.0 0.00 0.00 0.00 73 879.0
20260507105812 53 0 0.0 0.0 0.00 0.00 0.00 73 879.0
20260507105312 53 0 0.0 0.0 0.00 0.00 0.00 73 879.0
20260507104812 53 0 0.0 0.0 0.00 0.00 0.00 72 878.9
20260507104312 54 0 0.0 0.0 0.00 0.00 0.00 72 878.9
20260507103812 54 0 0.0 0.0 0.00 0.00 0.00 73 878.8
20260507103301 54 0 0.0 0.0 0.00 0.00 0.00 73 878.8
20260507102801 54 0 0.0 0.0 0.00 0.00 0.00 73 878.8
20260507102301 54 0 0.0 0.0 0.00 0.00 0.00 73 878.8
20260507101801 54 0 0.0 0.0 0.00 0.00 0.00 73 878.8
20260507101301 53 0 0.0 0.0 0.00 0.00 0.00 74 878.7
20260507100758 52 0 0.0 0.0 0.00 0.00 0.00 74 878.8
20260507100257 52 0 0.0 0.0 0.00 0.00 0.00 74 878.8
20260507095757 52 0 0.0 0.0 0.00 0.00 0.00 74 878.7
20260507095257 52 0 0.0 0.0 0.00 0.00 0.00 74 878.7
20260507094757 52 0 0.0 0.0 0.00 0.00 0.00 74 878.6
20260507094257 52 0 0.0 0.0 0.00 0.00 0.00 73 878.6
20260507093757 53 0 0.0 0.0 0.00 0.00 0.00 73 878.6
20260507093257 53 0 0.0 0.0 0.00 0.00 0.00 73 878.6
20260507092757 54 0 0.0 0.0 0.00 0.00 0.00 73 878.5
20260507092257 54 0 0.0 0.0 0.00 0.00 0.00 73 878.4
20260507091757 54 0 0.0 0.0 0.00 0.00 0.00 73 878.4
20260507091257 54 0 0.0 0.0 0.00 0.00 0.00 73 878.4
20260507090757 54 0 0.0 0.0 0.00 0.00 0.00 73 878.3
20260507090257 54 0 0.0 0.0 0.00 0.00 0.00 73 878.2
20260507085757 54 0 0.0 0.0 0.00 0.00 0.00 73 878.2
20260507085257 54 0 0.0 0.0 0.00 0.00 0.00 73 878.1
20260507084757 54 0 0.0 0.0 0.00 0.00 0.00 73 878.0
20260507084255 55 0 0.0 0.0 0.00 0.00 0.00 73 878.0
20260507083755 55 0 0.0 0.0 0.00 0.00 0.00 73 877.9
20260507082755 54 0 0.0 0.0 0.00 0.00 0.00 74 877.7
20260507082255 53 0 0.0 0.0 0.00 0.00 0.00 74 877.5
20260507081753 52 0 0.0 0.0 0.00 0.00 0.00 74 877.5
20260507081253 52 0 0.0 0.0 0.00 0.00 0.00 74 877.4
20260507080753 52 0 0.0 0.0 0.00 0.00 0.00 74 877.4
20260507080244 52 0 0.0 0.0 0.00 0.00 0.00 75 877.4
20260507075744 51 0 0.0 0.0 0.00 0.00 0.00 75 877.3
20260507075243 51 0 0.0 0.0 0.00 0.00 0.00 75 877.4
20260507074744 51 0 0.0 0.0 0.00 0.00 0.00 76 877.1
20260507074243 50 0 0.0 0.0 0.00 0.00 0.00 76 877.1
20260507073743 50 0 0.0 0.0 0.00 0.00 0.00 76 877.0
20260507073243 50 0 0.0 0.0 0.00 0.00 0.00 76 877.0
20260507072743 50 0 0.0 0.0 0.00 0.00 0.00 76 876.9
20260507072243 50 0 0.0 0.0 0.00 0.00 0.00 76 876.8
20260507071743 50 0 0.0 0.0 0.00 0.00 0.00 76 876.7
20260507071243 50 0 0.0 0.0 0.00 0.00 0.00 76 876.7
20260507070743 50 0 0.0 0.0 0.00 0.00 0.00 76 876.7
20260507070243 50 0 0.0 0.0 0.00 0.00 0.00 76 876.6
20260507065743 50 0 0.0 0.0 0.00 0.00 0.00 76 876.6
20260507064741 50 0 0.0 0.0 0.00 0.00 0.00 76 876.6
20260507064241 50 0 0.0 0.0 0.00 0.00 0.00 76 876.6
20260507063741 50 0 0.0 0.0 0.00 0.00 0.00 76 876.6
20260507062239 50 0 0.0 0.0 0.00 0.00 0.00 76 876.5
20260507061739 50 0 0.0 0.0 0.00 0.00 0.00 77 876.5
20260507060739 49 0 0.0 0.0 0.00 0.00 0.00 77 876.4
20260507060240 49 0 0.0 0.0 0.00 0.00 0.00 77 876.3
20260507055739 49 0 0.0 0.0 0.00 0.00 0.00 77 876.3
20260507055239 48 0 0.0 0.0 0.00 0.00 0.00 77 876.3
20260507054739 49 0 0.0 0.0 0.00 0.00 0.00 77 876.4
20260507054239 49 0 0.0 0.0 0.00 0.00 0.00 77 876.4
20260507053739 49 0 0.0 0.0 0.00 0.00 0.00 77 876.3
20260507053230 49 0 0.0 0.0 0.00 0.00 0.00 77 876.3
20260507052738 49 0 0.0 0.0 0.00 0.00 0.00 77 876.4
20260507052230 49 0 0.0 0.0 0.00 0.00 0.00 77 876.3
20260507051730 49 0 0.0 0.0 0.00 0.00 0.00 77 876.3
20260507051230 48 0 0.0 0.0 0.00 0.00 0.00 77 876.3
20260507050730 48 0 0.0 0.0 0.00 0.00 0.00 77 876.3
20260507050228 48 0 0.0 0.0 0.00 0.00 0.00 77 876.3
20260507045728 48 0 0.0 0.0 0.00 0.00 0.00 77 876.1
20260507045228 48 0 0.0 0.0 0.00 0.00 0.00 77 875.9
20260507044728 48 0 0.0 0.0 0.00 0.00 0.00 77 875.8
20260507044229 48 0 0.0 0.0 0.00 0.00 0.00 77 876.0
20260507043726 48 0 0.0 0.0 0.00 0.00 0.00 77 876.0
20260507043226 47 0 0.0 0.0 0.00 0.00 0.00 77 876.0
20260507042726 47 0 0.0 0.0 0.00 0.00 0.00 77 876.1
20260507042226 47 0 0.0 0.0 0.00 0.00 0.00 77 876.1
20260507041726 47 0 0.0 0.0 0.00 0.00 0.00 77 876.2
20260507041225 47 0 0.0 0.0 0.00 0.00 0.00 77 876.2
20260507040726 47 0 0.0 0.0 0.00 0.00 0.00 77 876.2
20260507040226 47 0 0.0 0.0 0.00 0.00 0.00 77 876.1
20260507035726 47 0 0.0 0.0 0.00 0.00 0.00 76 876.0
20260507035226 47 0 0.0 0.0 0.00 0.00 0.00 76 876.0
20260507034725 47 0 0.0 0.0 0.00 0.00 0.00 76 876.0
20260507034225 47 0 0.0 0.0 0.00 0.00 0.00 76 875.9
20260507033726 47 0 0.0 0.0 0.00 0.00 0.00 76 875.9
20260507033226 47 0 0.0 0.0 0.00 0.00 0.00 76 875.7
20260507032726 47 0 0.0 0.0 0.00 0.00 0.00 76 875.5
20260507032226 47 0 0.0 0.0 0.00 0.00 0.00 75 875.4
20260507031726 47 0 0.0 0.0 0.00 0.00 0.00 75 875.4
20260507031224 47 0 0.0 0.0 0.00 0.00 0.00 75 875.3
20260507030724 47 0 0.0 0.0 0.00 0.00 0.00 75 875.2
20260507030214 47 0 0.0 0.0 0.00 0.00 0.00 75 875.1
20260507025714 47 0 0.0 0.0 0.00 0.00 0.00 75 874.9
20260507025215 47 0 0.0 0.0 0.00 0.00 0.00 75 874.9
20260507024712 47 0 0.0 0.0 0.00 0.00 0.00 74 874.9
20260507024212 47 0 0.0 0.0 0.00 0.00 0.00 74 874.9
20260507023712 48 0 0.0 0.0 0.00 0.00 0.00 74 875.2
20260507023212 48 0 0.0 0.0 0.00 0.00 0.00 74 875.1
20260507022712 48 0 0.0 0.0 0.00 0.00 0.00 74 875.3
20260507022212 48 0 0.0 0.0 0.00 0.00 0.00 74 875.3
20260507021712 48 0 0.0 0.0 0.00 0.00 0.00 74 875.5
20260507021212 48 0 0.0 0.0 0.00 0.00 0.00 74 875.3
20260507020712 48 0 0.0 0.0 0.00 0.00 0.00 74 875.3
20260507020212 48 0 0.0 0.0 0.00 0.00 0.00 74 875.2
20260507015712 48 0 0.0 0.0 0.00 0.00 0.00 74 875.3
20260507015212 48 0 0.0 0.0 0.00 0.00 0.00 74 875.3
20260507014712 48 0 0.0 0.0 0.00 0.00 0.00 74 875.2
20260507014212 48 0 0.0 0.0 0.00 0.00 0.00 74 875.2
20260507013712 48 0 0.0 0.0 0.00 0.00 0.00 74 875.1
20260507013213 48 0 0.0 0.0 0.00 0.00 0.00 74 875.3
20260507012713 48 0 0.0 0.0 0.00 0.00 0.00 74 875.1
20260507012210 48 0 0.0 0.0 0.00 0.00 0.00 74 875.1
20260507011711 48 0 0.0 0.0 0.00 0.00 0.00 74 875.1
20260507010710 48 0 0.0 0.0 0.00 0.00 0.00 74 875.0
20260507010210 48 0 0.0 0.0 0.00 0.00 0.00 74 874.9
20260507005708 49 0 0.0 0.0 0.00 0.00 0.00 75 874.9
20260507005208 49 0 0.0 0.0 0.00 0.00 0.00 75 874.8
20260507004207 49 0 0.0 0.0 0.00 0.00 0.00 74 874.8
20260507003707 49 0 0.0 0.0 0.00 0.00 0.00 74 874.9
20260507003158 49 0 0.0 0.0 0.00 0.00 0.00 74 874.9
20260507002658 49 0 0.0 0.0 0.00 0.00 0.00 74 874.9
20260507002158 49 0 0.0 0.0 0.00 0.00 0.00 74 875.1
20260507001658 49 0 0.0 0.0 0.00 0.00 0.00 74 875.1
20260507001158 49 0 0.0 0.0 0.00 0.00 0.00 74 875.0
20260507000658 49 0 0.0 0.0 0.00 0.00 0.00 74 874.9
20260507000158 49 0 0.0 0.0 0.00 0.00 0.00 73 875.0
20260506235658 49 0 0.0 0.0 0.00 0.00 0.00 73 875.0
20260506235158 50 0 0.0 0.0 0.00 0.00 0.00 73 874.9
20260506234658 50 0 0.0 0.0 0.00 0.00 0.00 73 875.1
20260506234158 50 0 0.0 0.0 0.00 0.00 0.00 73 875.2
20260506233659 50 0 0.0 0.0 0.00 0.00 0.00 73 875.2
20260506233156 50 0 0.0 0.0 0.00 0.00 0.00 73 875.2
20260506232657 50 0 0.0 0.0 0.00 0.00 0.00 73 875.3
20260506232157 50 0 0.0 0.0 0.00 0.00 0.00 73 875.2
20260506231657 50 0 0.0 0.0 0.00 0.00 0.00 73 875.3
20260506231157 50 0 0.0 0.0 0.00 0.00 0.00 73 875.3
20260506230655 50 0 0.0 0.0 0.00 0.00 0.00 73 875.2
20260506225655 50 0 0.0 0.0 0.00 0.00 0.00 72 875.2
20260506225155 50 0 0.0 0.0 0.00 0.00 0.00 72 875.2
20260506224655 50 0 0.0 0.0 0.00 0.00 0.00 72 875.3
20260506224154 50 0 0.0 0.0 0.00 0.00 0.00 72 875.2
20260506223654 50 0 0.0 0.0 0.00 0.00 0.00 72 875.3
20260506223155 50 0 0.0 0.0 0.00 0.00 0.00 72 875.3
20260506222655 51 0 0.0 0.0 0.00 0.00 0.00 72 875.2
20260506222155 50 0 0.0 0.0 0.00 0.00 0.00 72 875.2
20260506221655 50 0 0.0 0.0 0.00 0.00 0.00 72 875.1
20260506221155 50 0 0.0 0.0 0.00 0.00 0.00 72 874.9
20260506220655 50 0 0.0 0.0 0.00 0.00 0.00 71 875.0
20260506220146 50 0 0.0 0.0 0.00 0.00 0.00 71 874.9
20260506215646 50 0 0.0 0.0 0.00 0.00 0.00 71 874.9
20260506215146 50 0 0.0 0.0 0.00 0.00 0.00 71 874.9
20260506214646 50 0 0.0 0.0 0.00 0.00 0.00 71 875.0
20260506214144 50 0 0.0 0.0 0.00 0.00 0.00 71 875.0
20260506213643 50 0 0.0 0.0 0.00 0.00 0.00 71 875.2
20260506213143 50 0 0.0 0.0 0.00 0.00 0.00 70 875.2
20260506212643 51 0 0.0 0.0 0.00 0.00 0.00 70 875.3
20260506212143 51 0 0.0 0.0 0.00 0.00 0.00 70 875.4
20260506211640 51 0 0.0 0.0 0.00 0.00 0.00 70 875.3
20260506211141 51 0 0.0 0.0 0.00 0.00 0.00 70 875.0
20260506210641 51 0 0.0 0.0 0.00 0.00 0.00 70 875.1
20260506210141 51 0 0.0 0.0 0.00 0.00 0.00 69 874.9
20260506205641 51 0 0.0 0.0 0.00 0.00 0.00 69 874.8
20260506205141 51 0 0.0 0.0 0.00 0.00 0.00 69 874.9
20260506204640 51 0 0.0 0.0 0.00 0.00 0.00 69 875.0
20260506204140 51 0 0.0 0.0 0.00 0.00 0.00 69 874.9
20260506203640 51 0 0.0 0.0 0.00 0.00 0.00 69 874.8
20260506203140 51 0 0.0 0.0 0.00 0.00 0.00 68 874.7
20260506202641 51 0 0.0 0.0 0.00 0.00 0.00 68 874.6
20260506202141 51 0 0.0 0.0 0.00 0.00 0.00 68 874.8
20260506201640 51 0 0.0 0.0 0.00 0.00 0.00 68 874.8
20260506201140 52 0 0.0 0.0 0.00 0.00 0.00 67 874.8
20260506200640 52 0 0.0 0.0 0.00 0.00 0.00 67 874.9
20260506200141 52 0 0.0 0.0 0.00 0.00 0.00 67 874.9
20260506195641 52 0 0.0 0.0 0.00 0.00 0.00 67 875.0
20260506195138 52 0 0.0 0.0 0.00 0.00 0.00 67 875.0
20260506194638 52 0 0.0 0.0 0.00 0.00 0.00 67 875.0
20260506194138 52 0 0.0 0.0 0.00 0.00 0.00 67 875.1
20260506193638 52 354 3.5 26.1 0.00 0.00 0.00 67 875.0
20260506193129 52 0 0.0 0.0 0.00 0.00 0.00 67 875.0
20260506192627 52 0 0.0 0.0 0.00 0.00 0.00 67 875.0
20260506192127 52 0 0.0 0.0 0.00 0.00 0.00 66 874.9
20260506191627 52 0 0.0 0.0 0.00 0.00 0.00 66 875.1
20260506191127 52 0 0.0 0.0 0.00 0.00 0.00 66 875.1
20260506190627 52 1 5.2 42.6 0.00 0.00 0.00 66 875.1
20260506190127 52 0 0.0 8.7 0.00 0.00 0.00 66 875.1
20260506185627 52 0 0.0 0.0 0.00 0.00 0.00 66 875.2
20260506185127 52 1 2.6 17.4 0.00 0.00 0.00 66 875.3
20260506184627 52 0 0.0 0.0 0.00 0.00 0.00 66 875.3
20260506184127 52 0 0.0 0.0 0.00 0.00 0.00 66 875.4
20260506183627 52 0 0.0 0.0 0.00 0.00 0.00 66 875.4
20260506183127 53 0 0.0 0.0 0.00 0.00 0.00 65 875.3
20260506182627 53 0 0.0 0.0 0.00 0.00 0.00 65 875.3
20260506182127 53 0 0.0 0.0 0.00 0.00 0.00 65 875.4
20260506181627 53 0 0.0 0.0 0.00 0.00 0.00 65 875.4
20260506181127 53 0 0.0 0.0 0.00 0.00 0.00 65 875.5
20260506180627 53 0 0.0 0.0 0.00 0.00 0.00 65 875.5
20260506180125 53 0 0.0 0.0 0.00 0.00 0.00 64 875.5
20260506175625 53 0 0.0 0.0 0.00 0.00 0.00 64 875.5
20260506175125 53 0 0.0 6.1 0.00 0.00 0.00 64 875.6
20260506174625 53 0 0.0 0.0 0.00 0.00 0.00 64 875.7
20260506174126 53 0 0.0 0.0 0.00 0.00 0.00 64 875.5
20260506173623 53 0 0.0 0.0 0.00 0.00 0.00 63 875.5
20260506173123 54 0 0.0 0.0 0.00 0.00 0.00 63 875.7
20260506172623 54 0 0.0 0.0 0.00 0.00 0.00 63 875.8